Theta_e
298 301 302 301 301 301 297 297 296 296 300 303 308 314 318 321 323 327 330 331 330 332 333 333 333 332 334 335 336 339 339 338 335 334 334 335 339 341 343 344 343 343 341 341
297 303 302 301 302 303 303 301 300 300 301 308 312 317 318 318 319 323 325 329 332 332 333 333 334 332 334 333 334 337 337 335 339 336 336 334 337 338 339 341 341 341 340 335
291 300 300 293 299 302 304 305 303 298 303 312 309 313 315 319 321 321 325 327 330 332 332 334 334 334 333 334 334 335 335 335 338 337 334 333 338 338 337 336 339 336 333 331
290 293 287 295 305 308 305 308 308 308 310 314 314 316 318 317 320 325 327 328 331 332 333 335 336 336 334 333 333 334 337 337 336 336 334 334 337 337 336 336 337 333 330 328
291 289 294 301 306 305 303 302 310 309 313 315 321 321 321 324 327 327 329 331 331 332 333 333 335 336 334 332 335 336 336 335 336 335 334 334 335 337 336 333 332 331 330 327
291 289 289 298 308 313 309 297 310 314 314 316 321 310 319 323 327 328 330 330 329 330 331 331 331 336 335 334 335 334 334 335 337 336 336 336 337 334 332 329 325 323 321 321
292 290 296 305 311 313 297 298 314 315 315 314 311 314 324 326 326 327 328 327 327 327 326 327 330 332 332 333 329 332 333 334 333 334 332 332 331 330 328 325 322 319 317 317
291 289 291 311 312 304 306 309 314 314 315 313 316 323 325 324 324 326 325 326 327 325 324 326 328 329 327 326 329 330 331 330 331 331 332 330 328 327 325 324 321 318 315 313
295 295 304 307 308 310 311 312 314 314 316 318 319 321 325 323 323 324 326 325 326 324 323 325 326 328 325 326 328 328 328 327 327 325 326 327 327 325 322 321 319 317 315 313
298 301 304 307 312 314 314 313 317 319 317 316 315 323 323 322 322 323 325 324 326 325 324 323 325 326 327 327 327 327 325 320 315 312 308 306 307 308 314 320 320 319 317 314
298 303 307 310 313 314 317 319 316 321 322 318 320 322 321 320 320 322 324 324 325 324 324 324 325 326 327 326 326 323 322 316 309 304 303 302 301 301 303 300 302 310 315 317
300 305 306 307 313 316 317 317 316 319 322 325 324 321 322 320 320 321 322 318 321 323 323 323 324 324 323 324 325 322 318 313 306 303 300 300 300 300 301 299 297 297 301 306
304 307 307 310 315 316 315 317 317 318 323 323 322 322 322 318 318 318 318 317 316 322 324 324 324 324 319 319 320 318 316 314 309 305 301 300 301 301 301 302 299 297 296 297
308 310 307 310 311 315 315 316 317 321 324 324 322 322 321 319 317 318 318 318 318 317 324 323 322 322 322 319 318 317 316 313 314 311 306 305 303 301 300 300 301 304 301 300
309 308 309 309 308 310 312 318 319 320 322 322 322 321 321 319 318 317 318 319 318 318 316 317 321 323 322 318 318 315 315 315 316 314 313 310 307 300 300 299 300 303 304 302
307 309 307 307 307 310 318 318 318 320 322 320 321 321 321 320 318 317 317 317 315 313 314 315 314 315 309 308 310 309 309 313 312 312 312 312 311 305 302 301 299 301 303 304
305 301 304 302 306 308 316 320 321 321 322 321 321 321 320 318 316 316 317 317 317 316 316 316 315 314 309 308 311 308 306 306 309 302 306 307 307 311 305 304 300 300 301 303
307 307 308 307 307 307 311 318 319 321 321 322 322 320 319 318 318 317 317 317 316 315 316 317 314 314 314 314 313 312 309 306 306 304 303 303 303 303 307 306 304 301 301 302
309 308 310 310 309 309 310 315 319 321 322 322 320 319 320 320 318 316 315 316 314 313 315 315 319 317 314 315 314 309 308 308 306 305 306 308 307 306 304 304 305 305 303 303
311 311 311 311 312 310 309 314 319 319 321 322 321 318 316 315 315 314 314 313 315 316 315 316 317 314 313 315 316 307 307 307 307 307 307 306 307 306 306 304 306 307 307 305
313 312 311 311 311 313 312 312 318 318 320 321 319 317 317 317 315 313 310 310 312 312 313 317 316 315 313 313 314 307 306 306 308 310 311 309 309 308 309 311 310 307 307 306
310 310 311 310 311 311 312 312 319 320 320 320 320 319 317 316 315 313 314 314 313 312 313 313 312 315 312 318 310 308 307 310 308 307 307 307 308 308 308 307 306 306 306 305
315 309 308 308 311 311 312 312 319 320 319 320 319 318 318 318 318 315 312 315 316 314 316 315 314 314 315 311 309 310 310 312 307 307 307 308 308 309 309 309 307 305 306 305
316 315 310 309 311 311 309 313 318 320 321 321 321 321 320 318 318 322 318 314 314 314 318 317 314 313 313 312 312 311 310 308 309 307 307 304 311 311 311 309 308 306 306 305
318 316 314 312 311 311 310 316 318 317 318 320 320 321 322 323 322 322 320 318 313 314 316 311 312 312 313 312 310 308 307 306 305 306 307 309 307 308 309 309 307 307 307 307
314 313 316 315 312 311 311 319 319 320 320 319 319 321 322 320 320 321 320 317 317 313 314 310 310 309 308 308 308 308 307 306 305 305 306 306 306 306 307 307 308 307 307 306
311 308 312 314 312 312 314 318 320 321 319 321 320 320 320 318 317 317 313 316 314 312 313 310 307 306 306 306 306 306 305 307 304 305 305 305 304 305 306 306 305 305 305 305
Wind_Speed
4 3 4 4 4 6 5 5 6 4 6 5 1 3 5 3 2 2 5 6 7 8 9 7 5 5 4 3 4 6 8 8 4 4 4 4 4 6 6 6 6 6 4 3
1 3 2 3 5 6 5 3 6 5 6 2 2 3 6 1 2 4 2 4 6 8 9 9 9 8 7 6 4 6 7 6 9 6 3 1 5 7 5 5 4 4 4 5
4 3 5 5 5 4 3 4 6 6 7 2 3 4 2 3 2 5 3 4 5 8 8 7 9 10 8 6 5 4 4 2 6 7 6 4 2 2 4 4 6 7 7 6
3 3 2 6 4 5 6 5 5 1 3 4 4 5 3 1 1 3 4 3 6 6 4 3 7 8 7 5 5 4 4 6 5 5 6 5 3 2 4 3 4 6 7 7
5 4 5 2 4 4 5 7 9 7 2 3 6 5 2 3 2 7 6 4 5 7 3 3 3 6 8 9 4 5 4 3 4 5 5 5 5 4 3 4 5 5 5 5
3 4 6 7 4 5 5 8 6 7 6 5 6 6 3 4 7 10 8 8 8 7 5 8 7 6 5 5 9 7 5 3 5 5 4 6 6 6 4 5 6 5 6 5
2 2 6 6 4 5 4 9 6 7 7 7 6 4 5 5 7 9 8 10 7 8 5 5 5 7 8 6 6 6 6 7 7 7 7 7 6 6 7 8 7 6 7 5
3 1 7 5 2 7 6 1 4 4 5 5 3 7 8 7 6 10 9 8 7 6 5 5 6 7 8 8 5 7 8 8 8 9 7 6 9 7 7 7 8 6 7 6
8 9 6 1 3 3 4 4 5 5 4 7 7 5 8 9 8 7 9 7 6 5 6 6 6 7 9 4 6 6 9 9 9 9 8 7 7 6 5 4 5 4 5 5
3 4 7 1 4 4 3 3 5 4 6 5 8 7 9 8 7 8 7 6 6 5 5 5 5 5 5 5 6 9 9 9 7 8 7 8 6 5 4 3 4 3 3 3
2 4 4 4 6 4 3 6 7 5 4 5 6 6 7 6 7 7 7 6 5 5 4 5 4 4 4 5 7 8 8 7 7 5 6 7 7 4 3 3 2 2 3 3
7 9 7 7 7 6 7 8 9 9 7 4 6 7 6 6 6 6 7 4 5 5 5 4 4 4 4 5 6 7 7 5 5 5 4 4 5 5 11 9 10 10 8 4
7 8 4 3 6 6 8 7 9 10 7 9 5 6 7 4 5 6 6 6 6 6 6 5 4 5 4 3 5 6 6 6 5 4 4 5 3 4 5 6 12 12 11 9
6 10 2 3 7 9 6 8 9 7 6 7 6 5 6 6 4 7 7 6 6 5 4 5 6 5 5 5 6 5 4 6 4 4 5 4 4 4 4 4 3 2 7 5
6 3 8 5 6 6 6 7 9 10 8 7 7 9 8 8 8 7 7 7 6 6 5 4 4 4 4 5 5 6 5 4 4 4 3 4 5 4 4 3 3 3 1 1
7 7 6 8 9 9 9 8 11 8 8 6 8 9 9 7 6 6 6 7 8 5 5 6 5 3 4 5 5 3 2 3 5 5 3 3 4 4 3 4 2 3 3 3
7 3 4 2 6 8 10 12 13 13 11 11 11 9 8 7 6 7 7 6 7 6 7 7 6 4 4 5 5 3 3 3 3 3 4 4 3 4 4 4 4 4 3 4
8 9 9 8 10 9 7 11 11 12 12 13 10 10 9 10 11 9 8 7 6 4 6 7 7 6 4 4 4 3 3 3 3 3 3 3 4 5 5 4 5 5 4 3
7 9 9 8 8 9 10 11 14 16 13 13 13 14 14 11 8 7 7 7 7 6 7 5 8 8 7 6 6 3 3 4 5 3 4 5 5 4 4 5 5 6 5 5
5 5 7 7 6 8 9 9 12 13 13 15 13 10 9 8 8 8 8 8 9 7 7 8 7 7 7 6 7 4 3 2 3 2 3 3 4 4 4 5 5 4 4 5
8 7 8 8 8 8 9 9 12 12 12 14 15 14 14 10 8 8 7 6 8 6 7 9 7 5 4 5 5 4 3 3 3 3 3 5 5 5 5 5 4 3 3 4
2 5 7 7 6 7 7 10 12 11 14 14 14 12 11 10 9 8 8 10 5 11 5 5 5 8 6 9 4 5 4 4 3 3 3 4 4 4 3 4 4 3 3 2
4 3 3 5 7 7 5 8 11 14 15 15 14 14 15 12 11 9 6 7 5 8 6 5 8 12 10 5 5 4 4 4 3 3 3 4 4 4 4 5 3 3 2 1
4 5 4 3 2 4 7 7 9 12 14 15 16 16 14 9 6 6 3 9 10 11 8 7 9 13 10 5 5 4 5 4 4 4 3 3 2 2 3 4 4 4 3 3
5 4 2 2 5 6 7 8 8 7 8 9 9 10 12 9 11 11 7 7 11 9 6 8 11 12 5 5 5 5 5 5 4 4 4 3 3 4 4 4 5 5 4 3
6 4 3 7 6 3 4 7 8 8 8 6 4 5 6 4 4 6 6 8 8 9 6 6 6 6 5 5 5 5 4 4 5 5 5 4 3 2 3 4 4 4 4 3
5 5 4 4 3 3 4 5 7 7 7 8 9 8 9 6 6 7 9 6 6 6 6 5 5 6 6 5 5 5 4 5 6 5 4 4 3 3 3 3 3 3 4 4
Wind_Direction
204 192 184 225 195 197 188 201 172 281 219 267 298 326 308 312 95 84 126 113 127 143 129 135 149 135 135 134 182 145 140 132 101 79 44 354 269 223 208 203 211 214 204 196
163 295 54 274 259 204 222 206 257 254 284 81 19 355 6 19 103 108 143 137 126 133 139 160 166 165 168 173 214 167 165 137 149 150 159 316 268 244 204 146 158 136 117 109
248 16 338 326 263 203 221 204 185 210 217 176 94 63 349 317 274 170 172 135 166 165 172 194 182 165 180 192 193 188 128 194 179 143 152 211 308 242 126 131 119 109 103 94
181 31 242 237 263 237 216 233 210 291 215 182 163 150 162 150 223 32 18 320 90 111 113 158 156 158 143 163 166 177 187 185 157 139 139 184 236 115 118 99 103 112 95 89
141 185 273 280 211 166 178 276 187 202 174 141 131 121 84 129 103 100 80 41 62 73 72 50 71 148 161 161 156 204 177 151 102 138 154 177 195 157 78 85 80 73 99 103
131 164 204 233 302 196 127 283 165 147 160 166 158 170 169 160 112 91 87 88 84 68 43 45 30 67 99 117 197 176 153 151 142 148 156 154 156 128 106 99 96 89 80 66
141 195 285 239 276 162 107 246 177 168 171 161 177 194 140 127 96 93 88 89 88 78 65 50 43 88 105 106 45 39 69 92 104 107 106 109 107 114 114 110 105 94 93 71
88 85 276 159 73 163 207 213 184 157 174 154 109 128 113 112 100 96 89 85 72 66 57 48 51 94 90 81 75 72 61 56 81 85 88 87 100 98 100 114 108 108 93 65
163 215 248 110 257 289 115 142 169 176 160 161 121 94 114 109 105 112 107 104 97 85 71 47 47 69 81 64 90 78 79 76 59 56 63 62 78 82 90 91 111 113 105 106
115 261 243 264 295 280 126 144 139 141 122 119 122 140 137 126 136 124 114 108 102 102 90 91 76 81 102 107 98 96 84 80 72 81 72 65 59 52 62 82 97 106 100 87
262 314 356 286 213 233 130 120 106 93 130 144 144 140 139 140 124 120 122 121 126 119 114 105 104 97 102 107 103 97 99 96 88 75 78 79 68 58 85 79 18 99 128 137
214 202 168 231 197 158 170 164 136 148 148 178 153 135 121 131 126 129 122 119 116 123 125 131 125 101 82 85 108 109 103 100 108 110 104 103 108 82 54 61 47 46 59 91
197 168 168 317 170 168 172 168 158 161 166 165 151 129 128 123 135 129 124 137 150 155 142 133 117 108 114 106 95 103 114 119 117 110 122 128 115 110 104 42 70 61 53 53
137 109 47 155 188 189 185 191 181 159 139 140 131 119 133 136 139 140 152 167 158 152 151 143 141 156 156 137 121 119 114 129 137 141 142 132 120 113 117 124 110 74 58 64
158 215 182 173 119 148 177 131 150 168 159 142 157 148 152 158 162 170 154 156 153 150 143 130 146 140 138 152 156 150 154 162 150 140 150 144 130 127 116 106 124 125 98 95
173 148 143 165 183 159 159 150 163 168 156 144 144 158 164 162 160 152 144 144 132 177 177 153 161 178 153 134 146 155 202 219 163 150 156 164 151 145 143 136 154 168 172 188
114 130 152 175 189 167 177 170 173 172 165 162 170 151 140 153 159 153 158 167 157 181 187 165 185 166 159 164 146 147 135 129 147 137 157 175 189 203 191 172 177 218 222 195
181 181 187 184 189 181 180 173 167 162 173 177 151 147 153 172 184 181 169 163 144 172 195 196 173 155 175 175 158 141 168 179 182 177 164 172 206 196 189 191 197 209 216 212
197 195 196 204 201 190 181 172 176 177 168 158 152 175 182 188 175 161 143 152 159 180 234 192 188 160 165 187 155 132 127 188 197 195 186 189 202 212 185 194 208 228 198 190
205 212 220 223 186 181 182 188 168 168 171 163 169 155 162 175 163 154 154 169 187 197 168 184 183 185 185 194 155 152 169 147 156 219 207 196 183 178 186 210 210 216 219 212
226 215 212 220 224 204 180 170 166 169 172 164 162 170 178 173 157 146 144 175 223 197 178 172 176 194 183 182 176 176 171 189 219 220 201 193 176 194 192 178 196 236 242 208
205 200 216 217 209 225 203 169 178 168 165 172 179 166 152 161 158 178 191 186 190 176 169 175 182 194 189 186 170 169 176 204 226 238 222 186 197 198 195 215 218 205 202 192
349 281 236 206 203 218 195 175 172 167 170 174 172 167 172 175 174 168 199 218 180 179 175 187 193 191 185 178 190 183 193 208 214 171 197 188 199 214 195 217 186 194 133 353
1 355 272 253 200 147 170 193 180 179 178 177 180 179 165 159 182 201 194 157 183 169 190 192 193 190 167 172 174 182 196 208 193 173 172 185 202 218 193 161 139 131 158 169
320 339 323 282 213 222 196 166 157 155 163 179 180 181 180 183 181 193 183 171 177 175 176 172 171 161 163 173 181 178 176 177 189 179 174 177 181 174 164 179 184 175 182 189
331 326 342 266 237 222 179 150 175 172 164 159 156 166 165 161 165 146 166 159 165 172 163 161 160 147 143 152 162 172 171 171 180 194 187 188 185 189 159 170 187 194 195 189
348 345 335 296 249 193 182 186 152 173 175 172 174 175 165 162 151 144 136 149 170 161 152 161 146 147 159 168 173 181 181 179 190 183 179 176 182 192 196 203 192 184 172 181